EW7144 Weather Reports


Display with metric or nautical units.
time (UTC)temp
F
wind
direction
speed
MPH
gust
MPH
rain 1hr
in
rain 24hr
in
rain mn
in
humidity
%
barometer
mb
20210802155404 44 294 1.0 3.0 0.00 0.06 0.02 91 997.0
20210802154905 44 304 0.0 1.0 0.00 0.06 0.02 91 997.0
20210802154405 44 282 0.0 1.0 0.00 0.06 0.02 91 997.0
20210802153905 44 301 0.0 1.0 0.00 0.06 0.02 91 997.0
20210802153405 44 305 2.0 3.0 0.00 0.06 0.02 91 996.9
20210802152904 44 304 1.0 3.0 0.00 0.06 0.02 91 996.9
20210802152405 44 318 0.0 1.0 0.00 0.06 0.02 91 997.0
20210802151905 44 319 0.0 1.0 0.00 0.06 0.02 91 997.0
20210802151406 44 331 0.0 1.0 0.00 0.06 0.02 91 997.0
20210802150905 44 348 0.0 1.0 0.00 0.06 0.02 90 996.9
20210802150404 44 352 0.0 0.0 0.00 0.06 0.02 90 996.9
20210802145905 44 347 0.0 1.0 0.00 0.06 0.02 90 997.0
20210802145404 45 349 0.0 1.0 0.00 0.06 0.02 91 997.0
20210802144905 44 350 0.0 1.0 0.00 0.06 0.02 90 997.0
20210802144405 45 351 0.0 1.0 0.00 0.06 0.02 90 997.1
20210802143905 45 346 0.0 1.0 0.00 0.06 0.02 90 997.0
20210802143404 45 349 0.0 2.0 0.01 0.06 0.02 90 997.0
20210802142904 45 347 1.0 2.0 0.01 0.06 0.02 90 997.1
20210802142404 45 348 0.0 0.0 0.01 0.06 0.02 90 997.1
20210802141904 45 351 0.0 0.0 0.01 0.06 0.02 90 997.1
20210802141404 45 350 0.0 0.0 0.01 0.06 0.02 90 997.2
20210802140905 45 348 0.0 0.0 0.01 0.06 0.02 90 997.1
20210802140405 45 349 0.0 1.0 0.01 0.06 0.02 90 997.1
20210802135904 45 351 1.0 2.0 0.01 0.06 0.02 90 997.1
20210802135404 45 228 0.0 1.0 0.01 0.06 0.02 90 997.1
20210802134904 45 228 0.0 1.0 0.01 0.06 0.02 90 997.0
20210802134407 45 228 1.0 2.0 0.01 0.06 0.02 90 997.1
20210802133906 45 228 0.0 0.0 0.01 0.06 0.02 90 997.2
20210802133404 45 228 0.0 0.0 0.01 0.05 0.01 90 997.3
20210802132905 45 228 0.0 0.0 0.01 0.05 0.01 90 997.5
20210802132405 45 228 0.0 0.0 0.01 0.05 0.01 90 997.6
20210802131904 45 228 0.0 0.0 0.01 0.05 0.01 90 997.7
20210802131405 45 228 0.0 0.0 0.01 0.05 0.01 90 997.8
20210802130905 45 228 0.0 0.0 0.01 0.05 0.01 90 997.9
20210802130405 45 228 0.0 0.0 0.01 0.05 0.01 90 997.9
20210802125905 45 228 0.0 0.0 0.01 0.05 0.01 90 997.9
20210802125404 45 228 0.0 1.0 0.01 0.05 0.01 90 998.0
20210802124905 46 228 0.0 1.0 0.01 0.05 0.01 90 998.1
20210802124405 46 228 0.0 1.0 0.01 0.05 0.01 90 998.1
20210802123905 46 228 0.0 1.0 0.02 0.05 0.01 89 998.1
20210802123404 46 228 0.0 1.0 0.01 0.04 0.00 89 998.1
20210802122904 46 237 0.0 1.0 0.01 0.04 0.00 89 998.2
20210802122404 46 238 1.0 3.0 0.01 0.04 0.00 89 998.3
20210802121905 46 234 1.0 2.0 0.02 0.04 0.00 89 998.3
20210802121405 46 211 1.0 3.0 0.02 0.04 0.00 89 998.3
20210802120904 46 233 1.0 3.0 0.02 0.04 0.00 89 998.3
20210802120405 46 237 0.0 1.0 0.02 0.04 0.00 89 998.4
20210802115904 46 237 0.0 2.0 0.02 0.04 0.04 89 998.4
20210802115405 46 237 1.0 3.0 0.02 0.04 0.04 89 998.3
20210802114904 46 178 0.0 3.0 0.02 0.04 0.04 89 998.3
20210802114404 47 162 0.0 2.0 0.02 0.04 0.04 89 998.2
20210802113905 47 198 0.0 1.0 0.01 0.03 0.03 88 998.2
20210802113404 47 197 0.0 2.0 0.01 0.03 0.03 88 998.2
20210802112904 47 261 1.0 2.0 0.01 0.03 0.03 88 998.2
20210802112404 47 177 0.0 1.0 0.01 0.03 0.03 88 998.2
20210802111904 47 177 1.0 1.0 0.00 0.02 0.02 88 998.2
20210802111405 48 179 0.0 2.0 0.00 0.02 0.02 87 998.2
20210802110904 48 212 0.0 1.0 0.00 0.02 0.02 87 998.2
20210802110404 49 212 0.0 1.0 0.00 0.02 0.02 87 998.2
20210802105904 49 215 1.0 5.0 0.00 0.02 0.02 87 998.2
20210802105404 50 327 0.0 1.0 0.00 0.02 0.02 87 998.1
20210802104905 50 329 0.0 1.0 0.00 0.02 0.02 87 998.1
20210802104404 50 327 0.0 1.0 0.00 0.02 0.02 87 998.1
20210802103904 50 347 0.0 1.0 0.00 0.02 0.02 86 998.1
20210802103404 50 324 0.0 2.0 0.00 0.02 0.02 86 998.2
20210802102904 50 296 2.0 3.0 0.00 0.02 0.02 86 998.3
20210802102404 50 293 2.0 3.0 0.00 0.02 0.02 86 998.3
20210802101905 50 275 1.0 3.0 0.00 0.02 0.02 87 998.3
20210802101405 50 271 2.0 3.0 0.00 0.02 0.02 87 998.4
20210802100904 50 211 0.0 1.0 0.00 0.02 0.02 87 998.4
20210802100404 50 211 0.0 2.0 0.00 0.02 0.02 87 998.4
20210802095905 50 35 0.0 1.0 0.00 0.02 0.02 86 998.4
20210802095405 50 31 0.0 1.0 0.00 0.02 0.02 86 998.4
20210802094904 50 187 0.0 2.0 0.00 0.02 0.02 86 998.4
20210802094404 50 221 1.0 3.0 0.00 0.02 0.02 85 998.4
20210802093904 50 273 0.0 1.0 0.00 0.02 0.02 85 998.4
20210802093406 51 217 0.0 3.0 0.00 0.02 0.02 85 998.3
20210802092905 51 222 1.0 3.0 0.00 0.02 0.02 85 998.3
20210802092405 51 295 1.0 2.0 0.00 0.02 0.02 85 998.4
20210802091904 51 211 1.0 3.0 0.00 0.02 0.02 85 998.4
20210802091405 51 174 1.0 3.0 0.00 0.02 0.02 85 998.4
20210802090905 51 297 1.0 2.0 0.00 0.02 0.02 85 998.4
20210802090405 51 233 1.0 3.0 0.00 0.02 0.02 85 998.5
20210802085904 51 272 1.0 3.0 0.00 0.02 0.02 84 998.6
20210802085404 51 277 2.0 8.0 0.00 0.02 0.02 84 998.6
20210802084904 51 298 5.0 10.0 0.00 0.02 0.02 85 998.6
20210802084404 51 324 3.0 6.0 0.00 0.02 0.02 85 998.6
20210802083905 51 328 3.0 3.0 0.00 0.02 0.02 85 998.6
20210802083405 51 333 1.0 3.0 0.00 0.02 0.02 85 998.7
20210802082904 51 316 2.0 3.0 0.00 0.02 0.02 85 998.6
20210802082405 51 327 2.0 3.0 0.00 0.02 0.02 85 998.7
20210802081904 51 354 2.0 5.0 0.00 0.02 0.02 85 998.7
20210802081404 51 333 2.0 5.0 0.00 0.02 0.02 85 998.8
20210802080904 51 321 2.0 3.0 0.00 0.02 0.02 85 998.8
20210802080405 51 353 2.0 5.0 0.00 0.02 0.02 85 998.8
20210802075905 51 12 2.0 5.0 0.00 0.02 0.02 85 998.7
20210802075405 51 335 1.0 3.0 0.00 0.02 0.02 85 998.6
20210802074904 51 15 3.0 8.0 0.00 0.02 0.02 85 998.8
20210802074404 51 15 5.0 12.0 0.00 0.02 0.02 85 998.8
20210802073905 51 1 7.0 14.0 0.00 0.02 0.02 85 998.9
20210802073405 51 11 10.0 14.0 0.00 0.02 0.02 85 998.8
20210802072904 51 64 3.0 12.0 0.00 0.02 0.02 85 998.4
20210802072404 51 179 2.0 6.0 0.00 0.02 0.02 85 998.2
20210802071905 51 189 1.0 3.0 0.00 0.02 0.02 85 999.0
20210802071404 51 318 1.0 5.0 0.00 0.02 0.02 85 999.2
20210802070904 51 328 2.0 6.0 0.00 0.02 0.02 86 999.1
20210802070405 51 195 1.0 2.0 0.00 0.02 0.02 85 998.8
20210802065904 51 204 0.0 3.0 0.00 0.02 0.02 85 999.0
20210802065404 51 235 1.0 3.0 0.00 0.02 0.02 85 999.1
20210802064904 51 213 1.0 2.0 0.00 0.02 0.02 85 999.2
20210802064404 52 191 1.0 3.0 0.00 0.02 0.02 85 999.4
20210802063905 52 183 1.0 5.0 0.00 0.02 0.02 84 999.5
20210802063405 52 200 1.0 3.0 0.00 0.02 0.02 84 999.5
20210802062904 52 196 1.0 3.0 0.00 0.02 0.02 83 999.6
20210802062405 52 242 1.0 7.0 0.00 0.02 0.02 83 999.7
20210802061904 52 267 3.0 8.0 0.00 0.02 0.02 83 999.7
20210802061404 52 273 3.0 7.0 0.00 0.02 0.02 83 999.8
20210802060904 52 271 2.0 8.0 0.00 0.02 0.02 83 999.8
20210802060404 52 286 5.0 10.0 0.00 0.02 0.02 83 999.9
20210802055904 52 290 6.0 12.0 0.00 0.02 0.02 83 1000.0
20210802055404 52 301 5.0 9.0 0.00 0.02 0.02 83 1000.0
20210802054904 52 300 5.0 9.0 0.00 0.02 0.02 83 1000.1
20210802054404 52 295 5.0 10.0 0.00 0.02 0.02 83 1000.2
20210802053904 52 306 5.0 9.0 0.00 0.02 0.02 83 1000.3
20210802053404 52 305 3.0 8.0 0.00 0.02 0.02 84 1000.4
20210802052905 52 324 3.0 9.0 0.00 0.02 0.02 84 1000.4
20210802052404 52 306 3.0 8.0 0.00 0.02 0.02 84 1000.5
20210802051905 52 315 3.0 8.0 0.00 0.02 0.02 84 1000.5
20210802051404 52 276 2.0 8.0 0.00 0.02 0.02 84 1000.5
20210802050905 52 294 3.0 7.0 0.00 0.02 0.02 84 1000.6
20210802050405 52 301 3.0 7.0 0.00 0.02 0.02 84 1000.6
20210802045904 52 277 4.0 9.0 0.00 0.02 0.02 84 1000.7
20210802045404 52 288 5.0 9.0 0.00 0.02 0.02 84 1000.7
20210802044904 52 287 5.0 9.0 0.00 0.02 0.02 84 1000.7
20210802044404 52 255 3.0 8.0 0.00 0.02 0.02 84 1000.6
20210802043905 53 324 2.0 3.0 0.00 0.02 0.02 84 1000.7
20210802043404 53 275 3.0 6.0 0.00 0.02 0.02 84 1000.7
20210802042904 53 277 1.0 6.0 0.00 0.02 0.02 84 1000.5
20210802042405 53 285 2.0 6.0 0.00 0.02 0.02 84 1000.6
20210802041904 53 211 2.0 8.0 0.00 0.02 0.02 84 1000.6
20210802041405 53 304 3.0 7.0 0.01 0.02 0.02 84 1000.6
20210802040905 53 279 2.0 3.0 0.01 0.02 0.02 84 1000.6
20210802040404 53 329 2.0 6.0 0.01 0.02 0.02 84 1000.7
20210802035904 53 328 2.0 6.0 0.01 0.02 0.02 84 1000.7
20210802035404 53 334 3.0 3.0 0.01 0.02 0.02 84 1000.6
20210802034904 53 355 2.0 3.0 0.01 0.02 0.02 84 1000.7
20210802034405 53 340 2.0 3.0 0.01 0.02 0.02 84 1000.7
20210802033905 53 327 2.0 5.0 0.01 0.02 0.02 84 1000.8
20210802033404 53 331 3.0 7.0 0.01 0.02 0.02 84 1000.9
20210802032906 53 342 2.0 5.0 0.01 0.02 0.02 83 1001.0
20210802032404 54 352 2.0 6.0 0.01 0.02 0.02 83 1001.1
20210802031904 54 348 3.0 7.0 0.01 0.02 0.02 82 1001.1
20210802031405 55 352 3.0 7.0 0.00 0.01 0.01 81 1001.2
20210802030904 55 321 3.0 8.0 0.00 0.01 0.01 81 1001.4
20210802030404 56 302 3.0 8.0 0.00 0.01 0.01 81 1001.5
20210802025905 56 316 3.0 10.0 0.00 0.01 0.01 81 1001.7
20210802025405 56 309 4.0 9.0 0.00 0.01 0.01 81 1001.7
20210802024904 56 299 5.0 9.0 0.00 0.01 0.01 80 1001.7
20210802024404 56 273 2.0 9.0 0.00 0.01 0.01 80 1001.6
20210802023904 57 299 3.0 6.0 0.00 0.01 0.01 79 1001.7
20210802023404 57 292 4.0 8.0 0.00 0.01 0.01 78 1001.7
20210802022905 57 256 3.0 7.0 0.00 0.01 0.01 79 1001.7
20210802022404 57 298 2.0 6.0 0.00 0.01 0.01 79 1001.8
20210802021905 56 279 3.0 8.0 0.00 0.01 0.01 80 1001.8
20210802021404 56 248 2.0 5.0 0.00 0.01 0.01 81 1001.9
20210802020905 55 253 2.0 3.0 0.00 0.01 0.01 82 1002.0
20210802020405 55 281 3.0 7.0 0.00 0.01 0.01 81 1002.2
20210802015904 55 319 2.0 6.0 0.00 0.01 0.01 82 1002.3
20210802015404 55 346 3.0 9.0 0.00 0.01 0.01 82 1002.4
20210802014904 56 343 5.0 10.0 0.00 0.01 0.01 82 1002.5
20210802014404 57 321 4.0 10.0 0.00 0.01 0.01 83 1002.5
20210802013905 57 335 6.0 12.0 0.00 0.01 0.01 83 1002.7
20210802013404 57 297 5.0 12.0 0.00 0.01 0.01 84 1002.7
20210802012904 56 305 4.0 9.0 0.00 0.01 0.01 85 1002.8
20210802012405 56 309 7.0 12.0 0.00 0.01 0.01 83 1003.0
20210802011904 56 287 5.0 10.0 0.00 0.01 0.01 81 1002.9
20210802011404 56 328 6.0 10.0 0.00 0.01 0.01 80 1003.1
20210802010904 58 321 4.0 6.0 0.00 0.01 0.01 79 1003.0
20210802010404 58 319 4.0 8.0 0.00 0.01 0.01 79 1003.1
20210802005904 59 287 4.0 7.0 0.00 0.01 0.01 78 1003.2
20210802005404 59 243 2.0 3.0 0.00 0.01 0.01 77 1003.1
20210802004905 60 228 1.0 3.0 0.00 0.01 0.01 77 1003.2
20210802004404 60 218 1.0 3.0 0.00 0.01 0.01 78 1003.4
20210802003905 59 220 2.0 3.0 0.00 0.01 0.01 79 1003.5
20210802003404 59 237 2.0 3.0 0.00 0.01 0.01 81 1003.6
20210802002905 58 275 1.0 3.0 0.00 0.01 0.01 82 1003.7
20210802002404 57 249 1.0 3.0 0.00 0.01 0.01 84 1003.9
20210802001905 56 234 1.0 3.0 0.00 0.01 0.01 86 1004.0
20210802001404 56 251 1.0 3.0 0.00 0.01 0.01 87 1004.1
20210802000904 56 292 3.0 6.0 0.00 0.01 0.01 87 1004.2
20210802000407 55 327 3.0 5.0 0.00 0.01 0.01 88 1004.3
20210801235905 55 311 2.0 3.0 0.00 0.01 0.01 88 1004.5
20210801235404 55 323 1.0 3.0 0.00 0.01 0.01 88 1004.6
20210801234905 55 341 2.0 3.0 0.00 0.01 0.01 89 1004.7
20210801234405 55 302 2.0 3.0 0.00 0.01 0.01 89 1004.8
20210801233904 55 255 2.0 3.0 0.00 0.01 0.01 90 1004.9
20210801233404 55 260 1.0 2.0 0.00 0.01 0.01 91 1005.0
20210801232904 54 272 1.0 3.0 0.00 0.01 0.01 91 1005.1
20210801232404 54 325 1.0 3.0 0.00 0.01 0.01 91 1005.2
20210801231904 54 4 1.0 3.0 0.00 0.01 0.01 91 1005.1
20210801231404 54 342 2.0 3.0 0.00 0.01 0.01 91 1005.3
20210801230904 54 276 2.0 5.0 0.00 0.01 0.01 92 1005.3
20210801230404 54 266 1.0 3.0 0.00 0.01 0.01 92 1005.4
20210801225904 53 280 2.0 5.0 0.00 0.01 0.01 92 1005.4
20210801225404 53 294 3.0 5.0 0.00 0.01 0.01 92 1005.5
20210801224904 53 347 1.0 3.0 0.00 0.01 0.01 92 1005.5
20210801224405 53 272 2.0 3.0 0.00 0.01 0.01 92 1005.5
20210801223904 53 309 2.0 3.0 0.00 0.01 0.01 92 1005.5
20210801223404 52 324 1.0 2.0 0.00 0.01 0.01 92 1005.5
20210801222904 52 337 1.0 3.0 0.00 0.01 0.01 92 1005.5
20210801222405 52 331 0.0 3.0 0.00 0.01 0.01 92 1005.6
20210801221904 52 319 2.0 3.0 0.00 0.01 0.01 92 1005.6
20210801221405 52 336 2.0 3.0 0.00 0.01 0.01 92 1005.6
20210801220906 52 327 1.0 2.0 0.00 0.01 0.01 92 1005.7
20210801220404 52 325 1.0 3.0 0.00 0.01 0.01 92 1005.6
20210801215904 52 287 1.0 2.0 0.00 0.01 0.01 92 1005.6
20210801215404 53 287 1.0 2.0 0.00 0.01 0.01 92 1005.5
20210801214904 53 287 0.0 1.0 0.00 0.01 0.01 92 1005.5
20210801214405 53 287 0.0 2.0 0.00 0.01 0.01 92 1005.7
20210801213904 52 287 0.0 1.0 0.00 0.01 0.01 92 1005.8
20210801213404 52 287 1.0 2.0 0.00 0.01 0.01 92 1005.8
20210801212904 53 262 1.0 3.0 0.00 0.01 0.01 92 1005.9
20210801212404 53 243 1.0 2.0 0.00 0.01 0.01 92 1006.0
20210801211905 52 228 0.0 1.0 0.00 0.01 0.01 92 1006.0
20210801211405 52 171 0.0 0.0 0.00 0.01 0.01 92 1006.0
20210801210907 53 172 0.0 0.0 0.00 0.01 0.01 92 1006.0
20210801210404 52 171 0.0 0.0 0.00 0.01 0.01 92 1006.0
20210801205904 52 172 0.0 2.0 0.00 0.01 0.01 92 1006.1
20210801205405 53 150 0.0 2.0 0.00 0.01 0.01 92 1006.1
20210801204905 52 79 0.0 2.0 0.00 0.01 0.01 92 1006.2
20210801204404 52 43 0.0 0.0 0.00 0.01 0.01 92 1006.2
20210801203904 52 43 0.0 2.0 0.00 0.01 0.01 92 1006.2
20210801203405 51 43 0.0 2.0 0.00 0.01 0.01 92 1006.2
20210801202904 51 43 0.0 2.0 0.00 0.01 0.01 92 1006.3
20210801202405 51 43 1.0 2.0 0.00 0.01 0.01 92 1006.3
20210801201904 51 43 1.0 2.0 0.00 0.01 0.01 92 1006.1
20210801201404 51 43 0.0 2.0 0.01 0.01 0.01 92 1006.0
20210801200904 51 43 2.0 3.0 0.01 0.01 0.01 92 1006.0
20210801200404 51 46 1.0 3.0 0.01 0.01 0.01 92 1005.9
20210801195904 51 95 0.0 1.0 0.01 0.01 0.01 92 1005.9
20210801195404 51 95 1.0 3.0 0.01 0.01 0.01 92 1005.9
20210801194905 52 41 1.0 3.0 0.01 0.01 0.01 92 1005.9
20210801194404 51 224 1.0 2.0 0.01 0.01 0.01 92 1005.9
20210801193904 51 224 1.0 2.0 0.01 0.01 0.01 92 1006.1
20210801193404 52 224 0.0 1.0 0.01 0.01 0.01 92 1006.1
20210801192904 52 224 0.0 0.0 0.01 0.01 0.01 92 1006.2
20210801192404 52 224 0.0 0.0 0.01 0.01 0.01 92 1006.2
20210801191904 52 224 0.0 0.0 0.01 0.01 0.01 92 1006.3
20210801191405 52 224 0.0 0.0 0.00 0.00 0.00 92 1006.3
20210801190905 52 224 0.0 1.0 0.00 0.00 0.00 92 1006.2
20210801190404 52 224 0.0 2.0 0.00 0.00 0.00 92 1006.3
20210801185905 52 193 0.0 1.0 0.00 0.00 0.00 92 1006.4
20210801185405 51 193 1.0 2.0 0.00 0.00 0.00 92 1006.4
20210801184904 51 218 1.0 2.0 0.00 0.00 0.00 92 1006.4
20210801184405 51 218 0.0 2.0 0.00 0.00 0.00 92 1006.4
20210801183904 51 224 1.0 5.0 0.00 0.00 0.00 92 1006.4
20210801183404 52 256 1.0 3.0 0.00 0.00 0.00 92 1006.4
20210801182905 52 235 1.0 2.0 0.00 0.00 0.00 92 1006.2
20210801182404 52 308 1.0 3.0 0.00 0.00 0.00 92 1006.2
20210801181904 52 238 1.0 3.0 0.00 0.00 0.00 92 1006.2
20210801181404 52 224 2.0 3.0 0.00 0.00 0.00 92 1006.2
20210801180904 52 2 1.0 3.0 0.00 0.00 0.00 92 1006.2
20210801180404 51 353 2.0 3.0 0.00 0.00 0.00 92 1006.2
20210801175904 51 328 1.0 2.0 0.00 0.00 0.00 92 1006.2
20210801175404 51 336 1.0 2.0 0.00 0.00 0.00 92 1006.2
20210801174904 51 215 0.0 1.0 0.00 0.00 0.00 92 1006.0
20210801174404 51 215 0.0 1.0 0.00 0.00 0.00 91 1006.1
20210801173904 51 214 0.0 1.0 0.00 0.00 0.00 92 1006.0
20210801173405 52 214 1.0 3.0 0.00 0.00 0.00 92 1006.0
20210801172904 52 215 1.0 3.0 0.00 0.00 0.00 91 1006.1
20210801172404 52 214 0.0 3.0 0.00 0.00 0.00 92 1006.1
20210801171904 52 220 0.0 2.0 0.00 0.00 0.00 92 1006.1
20210801171403 52 220 1.0 2.0 0.00 0.00 0.00 92 1006.3
20210801170904 52 242 1.0 2.0 0.00 0.00 0.00 92 1006.4
20210801170404 52 187 0.0 1.0 0.00 0.00 0.00 92 1006.4
20210801165904 52 187 1.0 2.0 0.00 0.00 0.00 92 1006.4
20210801165404 52 199 1.0 3.0 0.00 0.00 0.00 91 1006.4
20210801164904 52 259 1.0 3.0 0.00 0.00 0.00 91 1006.5
20210801164404 52 189 0.0 2.0 0.00 0.00 0.00 91 1006.5
20210801163904 52 185 1.0 2.0 0.00 0.00 0.00 91 1006.5
20210801163404 52 180 0.0 0.0 0.00 0.00 0.00 91 1006.6
20210801162904 52 180 0.0 0.0 0.00 0.00 0.00 91 1006.6
20210801162404 52 180 0.0 0.0 0.00 0.00 0.00 91 1006.6
20210801161904 52 180 0.0 0.0 0.00 0.00 0.00 91 1006.7
20210801161403 52 180 0.0 0.0 0.00 0.00 0.00 91 1006.7
20210801160904 52 179 0.0 0.0 0.00 0.00 0.00 91 1006.8
20210801160404 52 180 0.0 1.0 0.00 0.00 0.00 91 1006.8
20210801155904 52 179 1.0 1.0 0.00 0.00 0.00 91 1006.9